DECAYED

COSMOS 2251 DEB, 34577 (Decayed)

Orbit data source: Space-Track

COSMOS 2251 DEB, 34577 was space debris in LEO originally from a launch on Wed, 16 Jun 1993 UTC launched from the Plesetsk Missile And Space Complex (PKMTR). The debris from Iridium 33, an American commercial communications satellite, has been tracked extensively since its accidental collision with the defunct Russian satellite Cosmos 2251 in 2009. This event, occurring at high speed in low Earth orbit (LEO), generated thousands of pieces of space debris, significantly increasing the risk of further collisions. The Iridium 33 debris cloud has impacted space traffic management and orbital debris mitigation strategies, making it a subject of ongoing study in space situational awareness.

Loading next visibility...
Identifier
34577, 1993-036VP
Orbit
Decayed
Country
Flag of CISCIS
Related business
Manufacturer
Unknown
Mission
Decayed spacecraft
Bus & Motor
Unknown
Mass
Unknown
Launch date (UTC)
1993-06-16 (33 years ago)
Launch vehicle
Unknown
Launch site
Plesetsk Missile And Space Complex (PKMTR)
Object type
Payload
Rocket body
Debris
Shape & HBR
Unknown shape, 0.1 m
Radar Cross Section
Small (<0.1 m²)

Expand to show TLE details & history
Last TLE update: 5 months ago

TLE from 5 months ago
0 COSMOS 2251 DEB
1 34577U 93036VP  25337.66517684  .03828883  20682-1  10022-1 0  9995
2 34577  73.9867 183.0388 0005106 128.5361 231.6335 15.98545350893847
Epoch: 2025-12-03T15:57Z
TLE epoch observation values (Epoch: 2025-12-03T15:57:51.278Z)
Latitude
-0.0001°
Longitude
-129.1576°
Altitude
283.367 km
Speed
7.736 km/s
True Right ascension
12h 12m 09s
True Declination
0° 00' 00"
Sunlit
Object was in daylight at epoch
Visualization orbit readout
Latitude
Unknown
Longitude
Unknown
Altitude
Unknown
Speed
Unknown
Apparent Right ascension
Unknown
Apparent Declination
Unknown
Sunlit
N/A
Visualization observer readout
Local Sidereal Time
23:28:15
Azimuth
Unknown
Elevation
Unknown
Doppler factor
Unknown
Orbital elements
Apogee altitude
279.303 km
Perigee altitude
272.508 km
Semi-major axis
6,654.043 km
Eccentricity
0.00051
Inclination
73.9867°
RAAN
183.0388°
Arg. of periapsis
128.5361°
True anomaly
231.58764°
Mean anomaly
231.6335°
Eccentric anomaly
231.61057°
Mean motion
3.99866 °/min
Orbital period
90.03 mins
BSTAR
0.010022
Loading maneuver chart data...
Computing Atmospheric mass density...

Documentation

Showing up to 5 results
|